Weather History for Maple Lake, MN

Change the Weather History Date:

Sunday, January 6, 2013

  Actual Average (KSTC) Record (KSTC)
Temperature  
Mean Temperature 14 °F 12 °F  
Max Temperature 19 °F 21 °F 48 °F (1933)
Min Temperature 8 °F 2 °F -35 °F (1912)
Degree Days  
Heating Degree Days 52 53  
Month to date heating degree days 318  
Since 1 July heating degree days 3765  
Cooling Degree Days 0 0  
Month to date cooling degree days 0  
Year to date cooling degree days 0  
Moisture  
Dew Point 10 °F    
Average Humidity 85    
Maximum Humidity 96    
Minimum Humidity 72    
Precipitation  
Precipitation 0.00 in 0.03 in 0.48 in (1980)
Month to date precipitation 0.15  
Year to date precipitation 0.15  
Snow  
Snow 0.00 in 0.30 in 7.40 in (1980)
Month to date snowfall 1.8  
Since 1 July snowfall 20.4  
Snow Depth -    
Sea Level Pressure  
Sea Level Pressure 30.12 in    
Wind  
Wind Speed 8 mph (WSW)    
Max Wind Speed 15 mph    
Max Gust Speed 18 mph    
Visibility 10 miles    
Events      
T = Trace of Precipitation, MM = Missing Value Source: NWS Daily Summary

Daily Weather History Graph

Daily Weather History Graph

Search for Another Location

Airport:

Trip Planner

Search our weather history database for the weather conditions in past years. The results will help you decide how hot, cold, wet, or windy it might be!

Date:

Astronomy

Jan. 06, 2013 Rise Set
Actual Time 7:54 AM CST 4:49 PM CST
Civil Twilight 7:21 AM CST 5:23 PM CST
Nautical Twilight 6:44 AM CST 6:00 PM CST
Astronomical Twilight 6:08 AM CST 6:35 PM CST
Moon 2:03 AM CST (1/6) 12:22 PM CST (1/6)
Length of Visible Light 10h 01m
Length of Day
8h 54m
Waning Crescent, 33% of the Moon is Illuminated
Jan 6
Waning Crescent
Jan 11
New
Jan 18
First Quarter
Jan 26
Full
Feb 3
Last Quarter

Hourly Weather History & Observations

Time (CST) Temp. Windchill Dew Point Humidity Pressure Visibility Wind Dir Wind Speed Gust Speed Precip Events Conditions
12:15 AM 14.9 °F 0.9 °F 12.6 °F 90% 30.04 in 10.0 mi WNW 12.7 mph - N/A   Clear
12:36 AM 14.4 °F 1.6 °F 12.2 °F 91% 30.05 in 10.0 mi WNW 10.4 mph - N/A   Clear
12:55 AM 13.8 °F 1.0 °F 12.0 °F 93% 30.05 in 10.0 mi WNW 10.4 mph - N/A   Clear
1:15 AM 13.6 °F 2.5 °F 12.2 °F 94% 30.05 in 10.0 mi West 8.1 mph - N/A   Clear
1:34 AM 13.3 °F 2.0 °F 12.2 °F 95% 30.05 in 10.0 mi West 8.1 mph - N/A   Clear
1:55 AM 14.9 °F 5.0 °F 14.0 °F 96% 30.05 in 10.0 mi West 6.9 mph - N/A   Mostly Cloudy
2:15 AM 15.8 °F 7.2 °F 14.7 °F 95% 30.05 in 10.0 mi WNW 5.8 mph - N/A   Overcast
2:35 AM 16.2 °F 7.6 °F 14.9 °F 95% 30.07 in 10.0 mi WNW 5.8 mph - N/A   Mostly Cloudy
2:55 AM 15.8 °F 4.2 °F 14.2 °F 93% 30.08 in 10.0 mi West 9.2 mph - N/A   Overcast
3:14 AM 14.2 °F -1.2 °F 12.2 °F 92% 30.09 in 10.0 mi West 15.0 mph - N/A   Overcast
3:35 AM 12.9 °F -0.2 °F 9.3 °F 86% 30.09 in 10.0 mi WNW 10.4 mph - N/A   Overcast
3:54 AM 12.7 °F -1.1 °F 7.5 °F 80% 30.10 in 10.0 mi WNW 11.5 mph - N/A   Overcast
4:15 AM 12.2 °F -0.2 °F 6.6 °F 78% 30.10 in 10.0 mi WNW 9.2 mph - N/A   Overcast
4:35 AM 11.8 °F -0.7 °F 6.1 °F 78% 30.10 in 10.0 mi WNW 9.2 mph - N/A   Overcast
4:54 AM 12.0 °F 1.5 °F 6.4 °F 78% 30.10 in 10.0 mi WNW 6.9 mph - N/A   Overcast
5:15 AM 12.0 °F 1.5 °F 6.6 °F 79% 30.10 in 10.0 mi WNW 6.9 mph - N/A   Overcast
5:35 AM 12.0 °F 1.5 °F 6.6 °F 79% 30.11 in 10.0 mi WNW 6.9 mph - N/A   Mostly Cloudy
5:55 AM 11.8 °F 1.3 °F 6.6 °F 80% 30.13 in 10.0 mi NW 6.9 mph - N/A   Scattered Clouds
6:15 AM 11.3 °F 1.9 °F 6.4 °F 81% 30.14 in 10.0 mi NW 5.8 mph - N/A   Clear
6:34 AM 11.1 °F 3.1 °F 6.4 °F 81% 30.14 in 10.0 mi NW 4.6 mph - N/A   Clear
6:55 AM 10.2 °F 0.6 °F 6.4 °F 85% 30.16 in 10.0 mi WNW 5.8 mph - N/A   Clear
7:15 AM 10.9 °F 2.9 °F 7.5 °F 86% 30.16 in 10.0 mi WNW 4.6 mph - N/A   Mostly Cloudy
7:35 AM 10.2 °F 2.0 °F 7.5 °F 89% 30.17 in 10.0 mi WNW 4.6 mph - N/A   Scattered Clouds
7:55 AM 9.5 °F -0.3 °F 7.3 °F 91% 30.17 in 10.0 mi West 5.8 mph - N/A   Clear
8:15 AM 9.9 °F 0.2 °F 7.5 °F 90% 30.18 in 10.0 mi West 5.8 mph - N/A   Clear
8:35 AM 8.6 °F - 6.4 °F 91% 30.18 in 10.0 mi Calm Calm - N/A   Clear
8:55 AM 10.6 °F 2.5 °F 8.2 °F 90% 30.18 in 10.0 mi West 4.6 mph - N/A   Clear
9:35 AM 12.4 °F 4.6 °F 9.1 °F 87% 30.19 in 10.0 mi WNW 4.6 mph - N/A   Clear
9:55 AM 13.1 °F 1.8 °F 9.5 °F 86% 30.20 in 10.0 mi WNW 8.1 mph - N/A   Clear
10:15 AM 13.3 °F 4.2 °F 10.0 °F 87% 30.21 in 10.0 mi West 5.8 mph - N/A   Clear
10:35 AM 13.8 °F 8.0 °F 10.4 °F 86% 30.21 in 10.0 mi WNW 3.5 mph - N/A   Clear
10:55 AM 14.5 °F 7.1 °F 10.6 °F 84% 30.21 in 10.0 mi West 4.6 mph - N/A   Clear
11:15 AM 15.3 °F 6.6 °F 10.9 °F 83% 30.21 in 10.0 mi West 5.8 mph - N/A   Clear
11:35 AM 15.8 °F 10.2 °F 10.9 °F 81% 30.21 in 10.0 mi West 3.5 mph - N/A   Clear
11:55 AM 16.9 °F - 10.6 °F 76% 30.20 in 10.0 mi Calm Calm - N/A   Clear
12:15 PM 17.4 °F 12.1 °F 11.1 °F 76% 30.20 in 10.0 mi WSW 3.5 mph - N/A   Clear
12:35 PM 18.5 °F 13.3 °F 11.1 °F 73% 30.19 in 10.0 mi WSW 3.5 mph - N/A   Clear
12:55 PM 18.9 °F 12.1 °F 11.1 °F 72% 30.18 in 10.0 mi WSW 4.6 mph - N/A   Clear
1:14 PM 19.0 °F 11.1 °F 12.0 °F 74% 30.18 in 10.0 mi WSW 5.8 mph - N/A   Clear
1:35 PM 19.0 °F 11.1 °F 12.0 °F 74% 30.17 in 10.0 mi WSW 5.8 mph - N/A   Clear
1:55 PM 19.0 °F 11.1 °F 11.8 °F 74% 30.17 in 10.0 mi WSW 5.8 mph - N/A   Clear
2:15 PM 19.0 °F 12.3 °F 12.2 °F 75% 30.18 in 10.0 mi WSW 4.6 mph - N/A   Clear
2:55 PM 19.2 °F 11.3 °F 11.8 °F 73% 30.18 in 10.0 mi SW 5.8 mph - N/A   Clear
3:15 PM 18.3 °F 11.5 °F 11.3 °F 74% 30.17 in 10.0 mi SSW 4.6 mph - N/A   Clear
3:35 PM 18.3 °F 11.5 °F 11.3 °F 74% 30.17 in 10.0 mi South 4.6 mph - N/A   Clear
3:55 PM 18.0 °F 11.1 °F 11.3 °F 75% 30.17 in 10.0 mi South 4.6 mph - N/A   Clear
4:15 PM 16.9 °F 9.8 °F 11.3 °F 79% 30.17 in 10.0 mi SSE 4.6 mph - N/A   Clear
4:54 PM 15.1 °F 9.4 °F 10.4 °F 82% 30.17 in 10.0 mi South 3.5 mph - N/A   Clear
5:15 PM 14.0 °F 8.2 °F 10.0 °F 84% 30.16 in 10.0 mi South 3.5 mph - N/A   Clear
5:35 PM 13.3 °F 7.3 °F 9.7 °F 86% 30.16 in 10.0 mi South 3.5 mph - N/A   Clear
5:55 PM 12.4 °F 6.3 °F 9.3 °F 88% 30.15 in 10.0 mi South 3.5 mph - N/A   Clear
6:15 PM 11.8 °F 5.7 °F 9.1 °F 89% 30.14 in 10.0 mi SSE 3.5 mph - N/A   Clear
6:35 PM 10.9 °F 4.7 °F 8.6 °F 90% 30.15 in 10.0 mi South 3.5 mph - N/A   Clear
6:54 PM 10.9 °F 4.7 °F 9.1 °F 92% 30.14 in 10.0 mi South 3.5 mph - N/A   Clear
7:34 PM 9.5 °F -0.3 °F 8.1 °F 94% 30.11 in 7.0 mi SE 5.8 mph - N/A   Clear
7:55 PM 9.7 °F -1.3 °F 8.6 °F 95% 30.10 in 7.0 mi SSE 6.9 mph - N/A   Clear
8:15 PM 9.9 °F 0.2 °F 8.4 °F 94% 30.08 in 10.0 mi SSE 5.8 mph - N/A   Clear
8:35 PM 9.9 °F 1.6 °F 8.4 °F 94% 30.07 in 7.0 mi SSE 4.6 mph - N/A   Clear
8:55 PM 10.4 °F -0.4 °F 9.0 °F 94% 30.06 in 10.0 mi SSE 6.9 mph - N/A   Clear
9:55 PM 14.5 °F 2.7 °F 12.6 °F 92% 30.02 in 10.0 mi SSE 9.2 mph - N/A   Clear
10:15 PM 15.6 °F 2.5 °F 13.5 °F 91% 30.00 in 10.0 mi SSE 11.5 mph - N/A   Clear
10:35 PM 15.8 °F 3.4 °F 13.6 °F 91% 29.99 in 10.0 mi SSE 10.4 mph - N/A   Clear
10:55 PM 15.8 °F 3.4 °F 13.6 °F 91% 29.99 in 10.0 mi SSE 10.4 mph 16.1 mph N/A   Clear
11:35 PM 16.7 °F 3.8 °F 14.0 °F 89% 29.95 in 10.0 mi SSE 11.5 mph 16.1 mph N/A   Clear
11:55 PM 17.2 °F 4.5 °F 14.5 °F 89% 29.93 in 10.0 mi SSE 11.5 mph 18.4 mph N/A   Clear